• In Netherlands
  • List of Countries
  • For 7 days
  • Water Temperature
  • Satellite Maps
  • Weather Map
  • Weather Widgets
  • user-avatar
    Login

    Hourly Weather Wien

    Today, 1 May, Monday

    Time Temperature Precipitation Wind Pressure Humidity
    00:00 +6°C° 0 mm 4 mps 742 mmHg 84%
    01:00 +5°C° 0 mm 4 mps 742 mmHg 85%
    02:00 +5°C° 0 mm 4 mps 742 mmHg 86%
    03:00 +5°C° 0 mm 5 mps 742 mmHg 87%
    04:00 +5°C° 0 mm 5 mps 741 mmHg 87%
    05:00 +6°C° 0 mm 5 mps 741 mmHg 84%
    06:00 +5°C° 0 mm 6 mps 741 mmHg 81%
    07:00 +7°C° 0 mm 6 mps 741 mmHg 78%
    08:00 +9°C° 0 mm 6 mps 741 mmHg 74%
    09:00 +10°C° 0 mm 7 mps 741 mmHg 69%
    10:00 +12°C° 0 mm 7 mps 741 mmHg 65%
    11:00 +14°C° 0 mm 7 mps 740 mmHg 64%
    12:00 +14°C° 0 mm 6 mps 740 mmHg 62%
    13:00 +15°C° 0 mm 6 mps 740 mmHg 61%
    14:00 +15°C° 0 mm 6 mps 740 mmHg 62%
    15:00 +16°C° 0 mm 6 mps 740 mmHg 63%
    16:00 +16°C° 0 mm 5 mps 739 mmHg 63%
    17:00 +14°C° 0 mm 5 mps 740 mmHg 70%
    18:00 +13°C° 0 mm 4 mps 740 mmHg 78%
    19:00 +12°C° 0 mm 3 mps 740 mmHg 85%
    20:00 +11°C° 0 mm 3 mps 740 mmHg 87%
    21:00 +10°C° 0 mm 3 mps 741 mmHg 89%
    22:00 +9°C° 0 mm 3 mps 741 mmHg 91%
    23:00 +8°C° 0.1 mm 3 mps 741 mmHg 90%

    Tomorrow, 2 May, Tuesday

    Time Temperature Precipitation Wind Pressure Humidity
    00:00 +8°C° 0.1 mm 3 mps 742 mmHg 90%
    01:00 +7°C° 0.1 mm 3 mps 742 mmHg 89%
    02:00 +7°C° 0.3 mm 3 mps 742 mmHg 89%
    03:00 +7°C° 0.3 mm 3 mps 742 mmHg 88%
    04:00 +7°C° 0.3 mm 3 mps 743 mmHg 88%
    05:00 +7°C° 0.1 mm 3 mps 743 mmHg 86%
    06:00 +8°C° 0.1 mm 3 mps 744 mmHg 85%
    07:00 +7°C° 0.1 mm 4 mps 744 mmHg 83%
    08:00 +10°C° 0 mm 3 mps 744 mmHg 78%
    09:00 +11°C° 0 mm 3 mps 745 mmHg 73%
    10:00 +12°C° 0 mm 3 mps 745 mmHg 68%
    11:00 +14°C° 0 mm 3 mps 745 mmHg 63%
    12:00 +16°C° 0 mm 2 mps 745 mmHg 58%
    13:00 +18°C° 0 mm 1 mps 745 mmHg 53%
    14:00 +18°C° 0 mm 1 mps 744 mmHg 53%
    15:00 +18°C° 0 mm 1 mps 744 mmHg 53%
    16:00 +18°C° 0 mm 1 mps 744 mmHg 52%
    17:00 +15°C° 0 mm 1 mps 744 mmHg 62%
    18:00 +13°C° 0 mm 1 mps 744 mmHg 71%
    19:00 +11°C° 0 mm 1 mps 744 mmHg 81%
    20:00 +10°C° 0 mm 1 mps 744 mmHg 82%
    21:00 +9°C° 0 mm 1 mps 744 mmHg 84%
    22:00 +8°C° 0 mm 1 mps 744 mmHg 86%
    23:00 +8°C° 0 mm 1 mps 744 mmHg 86%

    Day after tomorrow, 3 May, Wednesday

    Time Temperature Precipitation Wind Pressure Humidity
    00:00 +8°C° 0 mm 1 mps 744 mmHg 87%
    01:00 +8°C° 0 mm 1 mps 744 mmHg 87%
    02:00 +8°C° 0 mm 1 mps 744 mmHg 87%
    03:00 +8°C° 0 mm 1 mps 744 mmHg 88%
    04:00 +8°C° 0 mm 1 mps 744 mmHg 88%
    05:00 +9°C° 0 mm 2 mps 744 mmHg 84%
    06:00 +12°C° 0 mm 2 mps 744 mmHg 80%
    07:00 +13°C° 0 mm 2 mps 743 mmHg 76%
    08:00 +14°C° 0 mm 3 mps 743 mmHg 72%
    09:00 +16°C° 0 mm 3 mps 743 mmHg 68%
    10:00 +18°C° 0 mm 4 mps 743 mmHg 64%
    11:00 +18°C° 0.1 mm 4 mps 743 mmHg 66%
    12:00 +18°C° 0.1 mm 4 mps 743 mmHg 67%
    13:00 +18°C° 0.1 mm 4 mps 742 mmHg 68%
    14:00 +18°C° 0.2 mm 4 mps 742 mmHg 71%
    15:00 +18°C° 0.2 mm 4 mps 742 mmHg 73%
    16:00 +18°C° 0.2 mm 4 mps 741 mmHg 76%
    17:00 +15°C° 0.5 mm 4 mps 741 mmHg 82%
    18:00 +14°C° 0.5 mm 3 mps 741 mmHg 87%
    19:00 +14°C° 0.5 mm 2 mps 741 mmHg 93%
    20:00 +13°C° 0.4 mm 2 mps 741 mmHg 94%
    21:00 +12°C° 0.4 mm 2 mps 741 mmHg 94%
    22:00 +10°C° 0.4 mm 2 mps 741 mmHg 95%
    23:00 +9°C° 0 mm 2 mps 741 mmHg 95%

    4 May, Thursday

    Time Temperature Precipitation Wind Pressure Humidity
    00:00 +9°C° 0 mm 2 mps 741 mmHg 95%
    01:00 +9°C° 0 mm 2 mps 741 mmHg 95%
    02:00 +8°C° 0 mm 2 mps 741 mmHg 95%
    03:00 +8°C° 0 mm 2 mps 741 mmHg 95%
    04:00 +8°C° 0 mm 2 mps 741 mmHg 95%
    05:00 +9°C° 0 mm 2 mps 741 mmHg 92%
    06:00 +10°C° 0 mm 2 mps 741 mmHg 89%
    07:00 +12°C° 0 mm 2 mps 741 mmHg 86%
    08:00 +13°C° 0 mm 2 mps 741 mmHg 80%
    09:00 +15°C° 0 mm 2 mps 741 mmHg 74%
    10:00 +16°C° 0 mm 2 mps 741 mmHg 68%
    11:00 +17°C° 0 mm 2 mps 741 mmHg 64%
    12:00 +18°C° 0 mm 2 mps 741 mmHg 60%
    13:00 +20°C° 0 mm 1 mps 741 mmHg 56%
    14:00 +20°C° 0.2 mm 1 mps 740 mmHg 57%
    15:00 +20°C° 0.2 mm 1 mps 740 mmHg 58%
    16:00 +20°C° 0.2 mm 1 mps 740 mmHg 59%
    17:00 +18°C° 0.2 mm 1 mps 740 mmHg 68%
    18:00 +14°C° 0.2 mm 1 mps 740 mmHg 78%
    19:00 +11°C° 0.2 mm 0 mps 740 mmHg 87%
    20:00 +10°C° 0.2 mm 0 mps 740 mmHg 88%
    21:00 +9°C° 0.2 mm 0 mps 740 mmHg 88%
    22:00 +9°C° 0.2 mm 0 mps 740 mmHg 89%
    23:00 +8°C° 0.1 mm 0 mps 740 mmHg 89%

    5 May, Friday

    Time Temperature Precipitation Wind Pressure Humidity
    00:00 +9°C° 0.1 mm 1 mps 741 mmHg 90%
    01:00 +9°C° 0.1 mm 1 mps 741 mmHg 90%
    02:00 +10°C° 0.1 mm 1 mps 741 mmHg 90%
    03:00 +9°C° 0.1 mm 2 mps 741 mmHg 90%
    04:00 +9°C° 0.1 mm 2 mps 741 mmHg 90%
    05:00 +10°C° 0.2 mm 2 mps 741 mmHg 88%
    06:00 +11°C° 0.2 mm 3 mps 742 mmHg 87%
    07:00 +12°C° 0.2 mm 3 mps 742 mmHg 85%
    08:00 +13°C° 0.1 mm 4 mps 742 mmHg 80%
    09:00 +15°C° 0.1 mm 4 mps 742 mmHg 76%
    10:00 +17°C° 0.1 mm 4 mps 742 mmHg 71%
    11:00 +18°C° 0.2 mm 4 mps 742 mmHg 69%
    12:00 +18°C° 0.2 mm 4 mps 742 mmHg 67%
    13:00 +19°C° 0.2 mm 4 mps 742 mmHg 65%
    14:00 +19°C° 0.2 mm 4 mps 742 mmHg 66%
    15:00 +19°C° 0.2 mm 4 mps 742 mmHg 67%
    16:00 +18°C° 0.2 mm 4 mps 741 mmHg 68%
    17:00 +17°C° 0.2 mm 4 mps 741 mmHg 75%
    18:00 +14°C° 0.2 mm 3 mps 742 mmHg 81%
    19:00 +13°C° 0.2 mm 3 mps 742 mmHg 88%
    20:00 +12°C° 0.2 mm 3 mps 742 mmHg 90%
    21:00 +11°C° 0.2 mm 3 mps 742 mmHg 91%
    22:00 +10°C° 0.2 mm 3 mps 743 mmHg 92%
    23:00 +10°C° 0 mm 3 mps 743 mmHg 93%

    6 May, Saturday

    Time Temperature Precipitation Wind Pressure Humidity
    00:00 +9°C° 0 mm 3 mps 743 mmHg 93%
    01:00 +9°C° 0 mm 3 mps 743 mmHg 94%
    02:00 +9°C° 0 mm 3 mps 743 mmHg 94%
    03:00 +8°C° 0 mm 2 mps 743 mmHg 95%
    04:00 +8°C° 0 mm 2 mps 743 mmHg 95%
    05:00 +9°C° 0 mm 3 mps 743 mmHg 92%
    06:00 +10°C° 0 mm 3 mps 743 mmHg 89%
    07:00 +12°C° 0 mm 3 mps 743 mmHg 85%
    08:00 +13°C° 0 mm 3 mps 743 mmHg 79%
    09:00 +16°C° 0 mm 3 mps 743 mmHg 73%
    10:00 +17°C° 0 mm 3 mps 743 mmHg 66%
    11:00 +18°C° 0.1 mm 2 mps 743 mmHg 63%
    12:00 +19°C° 0.1 mm 2 mps 742 mmHg 60%
    13:00 +19°C° 0.1 mm 2 mps 742 mmHg 57%
    14:00 +19°C° 0.2 mm 2 mps 742 mmHg 58%
    15:00 +19°C° 0.2 mm 2 mps 741 mmHg 59%
    16:00 +19°C° 0.2 mm 2 mps 741 mmHg 59%
    17:00 +18°C° 0.2 mm 1 mps 741 mmHg 69%
    18:00 +15°C° 0.2 mm 1 mps 741 mmHg 78%
    19:00 +14°C° 0.2 mm 1 mps 741 mmHg 87%
    20:00 +13°C° 0.1 mm 1 mps 741 mmHg 88%
    21:00 +12°C° 0.1 mm 1 mps 741 mmHg 90%
    22:00 +10°C° 0.1 mm 2 mps 741 mmHg 91%
    23:00 +10°C° 0 mm 1 mps 740 mmHg 92%
    Show more